Regional Weather Roundup
Issued by NWS Charleston, WV

Home | Current Version | Previous Version | Text Only | Print | Product List | Glossary Off
Versions: 1 2 3 4 5 6 7 8 9 10 11 12 13 14 15 16 17 18 19 20 21 22 23 24 25 26 27 28 29 30 31 32 33 34 35 36 37 38 39 40 41 42 43 44 45 46 47 48 49 50

000
ASUS41 KRLX 272210
RWRRLX
West Virginia Regional Weather Roundup
National Weather Service Charleston WV
500 PM EST TUE JAN 27 2015

Note: "fair" indicates few or no clouds below 12,000 feet with no
significant weather and/or obstructions to visibility.

WVZ003-272300-
Northern Panhandle of West Virginia

CITY           SKY/WX    TMP DP  RH WIND       PRES   REMARKS
WHEELING       CLOUDY    21  14  74 NW8       30.02R HAZE
$$

WVZ009-272300-
Northwest West Virginia

CITY           SKY/WX    TMP DP  RH WIND       PRES   REMARKS
PARKERSBURG    LGT SNOW  23  17  78 NW8       30.10R
$$

WVZ006-272300-
Western West Virginia

CITY           SKY/WX    TMP DP  RH WIND       PRES   REMARKS
HUNTINGTON     PTCLDY    27  15  61 NW10      30.08R
$$

WVZ015-272300-
West Central West Virginia

CITY           SKY/WX    TMP DP  RH WIND       PRES   REMARKS
CHARLESTON     FLURRIES  24  13  62 NW7       30.06R
$$

WVZ022-031-272300-
North Central West Virginia

CITY           SKY/WX    TMP DP  RH WIND       PRES   REMARKS
CLARKSBURG     LGT SNOW  22  17  81 NW8       30.00R
MORGANTOWN     LGT SNOW  22  14  71 VRB6      30.00R
$$

WVZ025-035-042-045-272300-
Southern West Virginia

CITY           SKY/WX    TMP DP  RH WIND       PRES   REMARKS
BECKLEY        CLEAR     21  10  62 N14       29.91R WCI   8
LOGAN          MOCLDY    23  14  68 N7        30.00R
BLUEFIELD      CLEAR     29  -4  24 NW9G20    29.86R
LEWISBURG      CLEAR     23  11  61 NW7       29.90R
$$

WVZ047-272300-
Northern Mountains of West Virginia

CITY           SKY/WX    TMP DP  RH WIND       PRES   REMARKS
ELKINS         LGT SNOW  20  15  81 NW7       29.94R
$$

WVZ052-272300-
Eastern Panhandle of West Virginia

CITY           SKY/WX    TMP DP  RH WIND       PRES   REMARKS
MARTINSBURG    CLOUDY    31  18  58 NW12      29.89R
PETERSBURG     CLOUDY    28  12  52 NW5       29.94R
$$


USA.gov is the U.S. government's official web portal to all federal, state and local government web resources and services.